Weather History for Orangeburg, SC

Change the Weather History Date:

Wednesday, October 9, 2013

  Actual Average Record
Temperature  
Mean Temperature 67 °F 68 °F  
Max Temperature 76 °F 79 °F 91 °F (2007)
Min Temperature 57 °F 56 °F 37 °F (1978)
Degree Days  
Heating Degree Days 0 1  
Month to date heating degree days 0 9  
Since 1 July heating degree days 0 13  
Cooling Degree Days 2 4  
Month to date cooling degree days 65 45  
Year to date cooling degree days 1971 2039  
Growing Degree Days 16 (Base 50)    
Moisture  
Dew Point 54 °F    
Average Humidity 70    
Maximum Humidity 86    
Minimum Humidity 53    
Precipitation  
Precipitation 0.00 in 0.13 in 1.35 in (1950)
Month to date precipitation 0.11 1.30  
Year to date precipitation 49.02 38.40  
Sea Level Pressure  
Sea Level Pressure 30.11 in    
Wind  
Wind Speed 8 mph (NNE)    
Max Wind Speed 17 mph    
Max Gust Speed 22 mph    
Visibility 10 miles    
Events      
T = Trace of Precipitation, MM = Missing Value Source: NWS Daily Summary

Daily Weather History Graph

Daily Weather History Graph

Search for Another Location

Airport:

Trip Planner

Search our weather history database for the weather conditions in past years. The results will help you decide how hot, cold, wet, or windy it might be!

Date:

Astronomy

Oct. 09, 2013 Rise Set
Actual Time 7:23 AM EDT 6:57 PM EDT
Civil Twilight 6:58 AM EDT 7:21 PM EDT
Nautical Twilight 6:29 AM EDT 7:50 PM EDT
Astronomical Twilight 6:01 AM EDT 8:19 PM EDT
Moon 12:06 PM EDT (10/9) 10:41 PM EDT (10/9)
Length of Visible Light 12h 23m
Length of Day
11h 33m
Waxing Crescent, 25% of the Moon is Illuminated
Oct 9
Waxing Crescent
Oct 11
First Quarter
Oct 18
Full
Oct 26
Last Quarter
Nov 3
New

Hourly Weather History & Observations

Time (EDT) Temp. Dew Point Humidity Pressure Visibility Wind Dir Wind Speed Gust Speed Precip Events Conditions
12:19 AM 57.2 °F 53.6 °F 88% 30.13 in 10.0 mi NNE 8.1 mph - N/A   Overcast
12:53 AM 57.0 °F 53.1 °F 87% 30.12 in 10.0 mi North 6.9 mph - N/A   Overcast
1:53 AM 57.9 °F 52.0 °F 81% 30.11 in 10.0 mi North 10.4 mph - N/A   Overcast
2:53 AM 57.9 °F 52.0 °F 81% 30.10 in 10.0 mi NNE 11.5 mph 17.3 mph N/A   Overcast
3:53 AM 59.0 °F 52.0 °F 78% 30.09 in 10.0 mi NNE 10.4 mph 18.4 mph N/A   Overcast
4:53 AM 59.0 °F 52.0 °F 78% 30.10 in 10.0 mi NNE 8.1 mph - N/A   Overcast
5:13 AM 59.0 °F 51.8 °F 77% 30.11 in 10.0 mi North 6.9 mph - N/A   Overcast
5:53 AM 59.0 °F 52.0 °F 78% 30.12 in 10.0 mi North 6.9 mph - N/A   Overcast
6:53 AM 59.0 °F 52.0 °F 78% 30.12 in 10.0 mi North 5.8 mph - N/A   Overcast
7:51 AM 59.0 °F 51.8 °F 77% 30.13 in 10.0 mi NNE 11.5 mph 18.4 mph N/A   Overcast
7:53 AM 59.0 °F 52.0 °F 78% 30.13 in 10.0 mi North 8.1 mph 18.4 mph N/A   Overcast
8:37 AM 60.8 °F 51.8 °F 72% 30.15 in 10.0 mi NNE 10.4 mph - N/A   Overcast
8:53 AM 61.0 °F 50.0 °F 67% 30.15 in 10.0 mi North 12.7 mph 19.6 mph N/A   Mostly Cloudy
9:53 AM 63.0 °F 51.1 °F 65% 30.16 in 10.0 mi NNE 13.8 mph - N/A   Clear
10:53 AM 66.0 °F 52.0 °F 60% 30.14 in 10.0 mi North 10.4 mph - N/A   Clear
11:53 AM 68.0 °F 53.1 °F 59% 30.14 in 10.0 mi North 10.4 mph - N/A   Clear
12:53 PM 71.1 °F 55.0 °F 57% 30.12 in 10.0 mi NNE 11.5 mph - N/A   Clear
1:53 PM 73.0 °F 55.9 °F 55% 30.10 in 10.0 mi North 10.4 mph 17.3 mph N/A   Partly Cloudy
2:53 PM 75.0 °F 57.0 °F 53% 30.08 in 10.0 mi NNE 11.5 mph - N/A   Scattered Clouds
3:53 PM 75.0 °F 57.0 °F 53% 30.06 in 10.0 mi North 9.2 mph - N/A   Clear
4:53 PM 75.0 °F 57.0 °F 53% 30.06 in 10.0 mi North 6.9 mph - N/A   Partly Cloudy
5:53 PM 73.9 °F 57.9 °F 57% 30.07 in 10.0 mi North 6.9 mph - N/A   Mostly Cloudy
6:53 PM 70.0 °F 57.9 °F 65% 30.06 in 10.0 mi NNE 4.6 mph - N/A   Partly Cloudy
7:53 PM 66.9 °F 57.0 °F 70% 30.08 in 10.0 mi NNE 3.5 mph - N/A   Partly Cloudy
8:53 PM 66.9 °F 57.0 °F 70% 30.08 in 10.0 mi NE 4.6 mph - N/A   Mostly Cloudy
9:53 PM 64.9 °F 57.0 °F 75% 30.09 in 10.0 mi NNE 4.6 mph - N/A   Scattered Clouds
10:53 PM 64.9 °F 55.9 °F 73% 30.09 in 10.0 mi North 5.8 mph - N/A   Scattered Clouds
11:53 PM 64.0 °F 54.0 °F 70% 30.09 in 10.0 mi North 5.8 mph - N/A   Clear